Flag for Lithuania

Past Weather in Kaunas, Lithuania — Yesterday and Last 2 Weeks

Now
70 °F

Sunny.


Feels Like: 70 °F
Forecast: 75 / 53 °F
Wind: 2 mph from North

Location: Kaunas
Current Time: Sep 23, 2020 at 7:29:05 pm
Latest Report: Sep 23, 2020 at 6:50 pm
Visibility: 10 mi
Pressure29.77 "Hg
Humidity: 60%
Dew Point: 55 °F
Location of KaunasLocation

Past Weather in Kaunas — Graph

°F

Kaunas Temperature Yesterday

Maximum temperature yesterday: 73 °F (at 4:20 pm)
Minimum temperature yesterday: 46 °F (at 1:50 am)
Average temperature yesterday: 58 °F

High & Low Weather Summary for the Past Weeks

 TemperatureHumidityPressure
High79 °F (Sep 16, 3:50 pm)94% (Sep 10, 4:50 am)30.30 "Hg (Sep 10, 4:50 am)
Low37 °F (Sep 20, 6:50 am)45% (Sep 18, 2:50 pm)29.71 "Hg (Sep 10, 3:50 am)
Average58 °F73%30.07 "Hg
* Reported Sep 8 6:20 pm — Sep 23 6:20 pm, Kaunas. Weather by CustomWeather, © 2020

Note: Actual official high and low records may vary slightly from our data, if they occured in-between our weather recording intervals... More about our weather records

Kaunas Weather History for the Previous 24 Hours

Scroll right to see more
 ConditionsComfort  
Time TempWeatherWind HumidityBarometerVisibility
6:20 pm
Wed, Sep 23
72 °FSunny.3 mph57%29.77 "Hg10 mi
5:50 pm73 °FPassing clouds.3 mph50%29.80 "HgN/A
5:20 pm75 °FPassing clouds.5 mph47%29.80 "HgN/A
4:50 pm75 °FPassing clouds.6 mph47%29.80 "HgN/A
4:20 pm75 °FPassing clouds.5 mph47%29.80 "HgN/A
3:50 pm75 °FPassing clouds.5 mph47%29.80 "HgN/A
2:50 pm75 °FPassing clouds.7 mph47%29.83 "HgN/A
2:20 pm75 °FPassing clouds.8 mph47%29.83 "HgN/A
1:50 pm73 °FPassing clouds.7 mph53%29.83 "HgN/A
1:20 pm73 °FPassing clouds.10 mph50%29.83 "HgN/A
12:50 pm72 °FPassing clouds.10 mph53%29.83 "HgN/A
12:20 pm70 °FPassing clouds.7 mph60%29.86 "HgN/A
11:50 am68 °FPassing clouds.8 mph64%29.86 "HgN/A
11:20 am66 °FSunny.9 mph64%29.86 "Hg10 mi
10:50 am64 °FPassing clouds.10 mph64%29.86 "HgN/A
10:20 am63 °FPassing clouds.8 mph68%29.86 "HgN/A
9:50 am61 °FPassing clouds.6 mph72%29.86 "HgN/A
9:20 am59 °FPassing clouds.6 mph77%29.86 "HgN/A
8:50 am57 °FPassing clouds.7 mph77%29.86 "HgN/A
8:20 am57 °FPassing clouds.8 mph77%29.86 "HgN/A
7:50 am55 °FPassing clouds.5 mph77%29.86 "HgN/A
7:20 am54 °FSunny.2 mph82%29.86 "Hg10 mi
6:50 am50 °FClear.2 mph88%29.86 "Hg10 mi
6:20 am52 °FPassing clouds.3 mph82%29.86 "HgN/A
5:50 am54 °FClear.5 mph82%29.89 "Hg10 mi
5:20 am55 °FClear.3 mph77%29.89 "Hg10 mi
4:50 am55 °FClear.5 mph77%29.89 "Hg10 mi
4:20 am55 °FClear.6 mph82%29.89 "Hg10 mi
3:50 am55 °FPassing clouds.3 mph82%29.89 "HgN/A
3:20 am55 °FCool.3 mph82%29.89 "HgN/A
2:50 am55 °FCool.3 mph82%29.92 "HgN/A
2:20 am52 °FCool.3 mph88%29.92 "HgN/A
1:50 am55 °FCool.3 mph82%29.92 "HgN/A
1:20 am54 °FCool.3 mph82%29.92 "HgN/A
12:50 am52 °FCool.2 mph82%29.92 "HgN/A
12:20 am52 °FCool.2 mph82%29.92 "HgN/A
11:50 pm
Tue, Sep 22
54 °FClear.2 mph82%29.92 "Hg10 mi
11:20 pm55 °FClear.2 mph82%29.92 "Hg10 mi
10:50 pm54 °FPassing clouds.3 mph82%29.92 "HgN/A
10:20 pm54 °FClear.1 mph88%29.92 "Hg10 mi
9:20 pm59 °FClear.3 mph72%29.92 "Hg10 mi
8:50 pm59 °FPassing clouds.3 mph72%29.92 "HgN/A
8:20 pm59 °FClear.3 mph77%29.92 "Hg10 mi
7:50 pm61 °FClear.1 mph68%29.92 "Hg10 mi
7:20 pm64 °FSunny.2 mph64%29.92 "Hg10 mi
Weather by CustomWeather, © 2020

See weather overview